DLH9MF EDDF-LIPE

Flight info

Callsign DLH9MF
Flight time 1h 2m
Altitude 37000
Route ANEKI2L/18 ANEKI Y163 NATOR DCT TRA/N0415F310 DCT ARGAX DCT RESIA DCT ATPED DCT TAGIP DCT MOVOR DCT ADOSA/N0346F190 M738 BENUS
Aircraft A319/M-SDE2E3FGIJ1LORWXYZ/HB1

Departure

Time 2026-05-06 18:43
Airport Frankfurt Main Airport (EDDF)

Arrival

Time 2026-05-06 19:45
Airport Bologna Guglielmo Marconi Airport (LIPE)
Time Latitude Longitude Altitude Speed Heading
2026-05-06 18:18 50.04926 8.58943 361 ft 0 kts 160°
2026-05-06 18:28 50.04947 8.58931 342 ft 4 kts 160°
2026-05-06 18:28 50.04967 8.58919 367 ft 4 kts 176°
2026-05-06 18:28 50.04985 8.58936 365 ft 4 kts 249°
2026-05-06 18:29 50.04994 8.58973 365 ft 4 kts 250°
2026-05-06 18:29 50.04997 8.58988 365 ft 0 kts 250°
2026-05-06 18:32 50.04996 8.58984 365 ft 1 kts 250°
2026-05-06 18:32 50.04990 8.58956 368 ft 5 kts 250°
2026-05-06 18:33 50.04972 8.58882 369 ft 9 kts 250°
2026-05-06 18:33 50.04950 8.58786 370 ft 10 kts 250°
2026-05-06 18:33 50.04927 8.58689 367 ft 10 kts 250°
2026-05-06 18:33 50.04903 8.58591 365 ft 10 kts 250°
2026-05-06 18:34 50.04880 8.58492 367 ft 10 kts 251°
2026-05-06 18:34 50.04857 8.58388 367 ft 11 kts 249°
2026-05-06 18:34 50.04828 8.58274 367 ft 11 kts 249°
2026-05-06 18:34 50.04802 8.58163 365 ft 11 kts 250°
2026-05-06 18:35 50.04777 8.58056 366 ft 10 kts 250°
2026-05-06 18:35 50.04751 8.57956 368 ft 10 kts 239°
2026-05-06 18:35 50.04706 8.57884 364 ft 9 kts 235°
2026-05-06 18:35 50.04683 8.57796 366 ft 10 kts 250°
2026-05-06 18:36 50.04653 8.57672 368 ft 17 kts 249°
2026-05-06 18:36 50.04600 8.57454 365 ft 23 kts 249°
2026-05-06 18:36 50.04546 8.57227 365 ft 22 kts 250°
2026-05-06 18:36 50.04494 8.57006 367 ft 21 kts 250°
2026-05-06 18:37 50.04443 8.56790 365 ft 21 kts 250°
2026-05-06 18:37 50.04394 8.56582 367 ft 21 kts 250°
2026-05-06 18:37 50.04342 8.56370 365 ft 21 kts 249°
2026-05-06 18:37 50.04291 8.56161 366 ft 21 kts 250°
2026-05-06 18:38 50.04240 8.55942 369 ft 22 kts 249°
2026-05-06 18:38 50.04185 8.55716 366 ft 23 kts 250°
2026-05-06 18:38 50.04128 8.55477 364 ft 24 kts 250°
2026-05-06 18:38 50.04068 8.55224 365 ft 26 kts 249°
2026-05-06 18:39 50.04004 8.54956 367 ft 27 kts 250°
2026-05-06 18:39 50.03937 8.54670 370 ft 29 kts 250°
2026-05-06 18:39 50.03862 8.54371 367 ft 26 kts 240°
2026-05-06 18:40 50.03727 8.53920 366 ft 24 kts 250°
2026-05-06 18:40 50.03670 8.53678 365 ft 23 kts 250°
2026-05-06 18:40 50.03616 8.53468 366 ft 21 kts 249°
2026-05-06 18:40 50.03565 8.53254 364 ft 21 kts 250°
2026-05-06 18:41 50.03515 8.53040 365 ft 21 kts 250°
2026-05-06 18:41 50.03461 8.52834 366 ft 20 kts 249°
2026-05-06 18:41 50.03417 8.52663 370 ft 12 kts 250°
2026-05-06 18:41 50.03377 8.52592 366 ft 9 kts 186°
2026-05-06 18:42 50.03358 8.52594 365 ft 1 kts 178°
2026-05-06 18:42 50.03343 8.52594 365 ft 7 kts 178°
2026-05-06 18:42 50.03055 8.52596 362 ft 87 kts 179°
2026-05-06 18:42 50.02191 8.52598 367 ft 161 kts 181°
2026-05-06 18:43 50.01012 8.52574 973 ft 169 kts 183°
2026-05-06 18:43 49.99835 8.52641 1750 ft 174 kts 179°
2026-05-06 18:43 49.98557 8.52747 2245 ft 194 kts 179°
2026-05-06 18:43 49.97143 8.52858 2590 ft 223 kts 179°
2026-05-06 18:44 49.95518 8.52959 3286 ft 236 kts 180°
2026-05-06 18:44 49.93889 8.53047 4415 ft 231 kts 181°
2026-05-06 18:44 49.92292 8.53130 5485 ft 230 kts 181°
2026-05-06 18:44 49.90701 8.53240 6379 ft 234 kts 180°
2026-05-06 18:45 49.89063 8.53380 7237 ft 239 kts 180°
2026-05-06 18:45 49.87383 8.53533 8081 ft 245 kts 179°
2026-05-06 18:45 49.85666 8.53693 8998 ft 249 kts 179°
2026-05-06 18:45 49.83926 8.53834 9915 ft 252 kts 180°
2026-05-06 18:46 49.82166 8.53936 10786 ft 254 kts 181°
2026-05-06 18:46 49.80388 8.54003 11668 ft 256 kts 181°
2026-05-06 18:46 49.78598 8.54080 12535 ft 259 kts 180°
2026-05-06 18:46 49.76775 8.54092 13234 ft 270 kts 184°
2026-05-06 18:47 49.74821 8.53895 13568 ft 293 kts 186°
2026-05-06 18:47 49.72708 8.53585 13826 ft 317 kts 187°
2026-05-06 18:47 49.70480 8.53234 14196 ft 333 kts 187°
2026-05-06 18:47 49.68152 8.52875 14868 ft 339 kts 186°
2026-05-06 18:48 49.65787 8.52527 15592 ft 343 kts 186°
2026-05-06 18:48 49.63399 8.52194 16331 ft 347 kts 186°
2026-05-06 18:48 49.60985 8.51869 17068 ft 350 kts 185°
2026-05-06 18:48 49.58540 8.51547 17819 ft 354 kts 185°
2026-05-06 18:49 49.56080 8.51225 18506 ft 357 kts 185°
2026-05-06 18:49 49.53598 8.50899 19146 ft 360 kts 185°
2026-05-06 18:49 49.51127 8.50576 19807 ft 362 kts 185°
2026-05-06 18:49 49.48609 8.50249 20462 ft 365 kts 185°
2026-05-06 18:50 49.46069 8.49922 21112 ft 368 kts 185°
2026-05-06 18:50 49.43504 8.49587 21756 ft 371 kts 185°
2026-05-06 18:50 49.40923 8.49249 22399 ft 374 kts 185°
2026-05-06 18:50 49.38318 8.48906 23038 ft 377 kts 185°
2026-05-06 18:51 49.35698 8.48557 23628 ft 380 kts 185°
2026-05-06 18:51 49.33053 8.48205 24152 ft 383 kts 184°
2026-05-06 18:51 49.30390 8.47857 24657 ft 386 kts 184°
2026-05-06 18:51 49.27704 8.47514 25161 ft 389 kts 184°
2026-05-06 18:52 49.25034 8.47173 25654 ft 392 kts 184°
2026-05-06 18:52 49.22308 8.46821 26131 ft 395 kts 184°
2026-05-06 18:52 49.19560 8.46463 26603 ft 398 kts 184°
2026-05-06 18:52 49.16789 8.46098 27072 ft 401 kts 184°
2026-05-06 18:53 49.14000 8.45734 27537 ft 404 kts 184°
2026-05-06 18:53 49.11190 8.45372 28011 ft 407 kts 184°
2026-05-06 18:53 49.08357 8.45008 28470 ft 410 kts 184°
2026-05-06 18:53 49.05520 8.44461 28925 ft 413 kts 191°
2026-05-06 18:54 49.02714 8.43489 29379 ft 416 kts 192°
2026-05-06 18:54 48.99878 8.42494 29833 ft 419 kts 192°
2026-05-06 18:54 48.97028 8.41499 30218 ft 421 kts 192°
2026-05-06 18:54 48.94199 8.40517 30599 ft 423 kts 192°
2026-05-06 18:55 48.91325 8.39521 30978 ft 425 kts 192°
2026-05-06 18:55 48.88440 8.38520 31354 ft 426 kts 192°
2026-05-06 18:55 48.85550 8.37518 31818 ft 425 kts 193°
2026-05-06 18:55 48.82679 8.36523 32380 ft 422 kts 193°
2026-05-06 18:56 48.79829 8.35535 32958 ft 418 kts 193°
2026-05-06 18:56 48.77001 8.34551 33546 ft 415 kts 193°
2026-05-06 18:56 48.74203 8.33545 34071 ft 412 kts 194°
2026-05-06 18:56 48.71458 8.32537 34454 ft 411 kts 194°
2026-05-06 18:57 48.68681 8.31507 34792 ft 411 kts 194°
2026-05-06 18:57 48.65902 8.30475 35100 ft 412 kts 194°
2026-05-06 18:57 48.63118 8.29447 35410 ft 412 kts 194°
2026-05-06 18:57 48.60330 8.28428 35713 ft 412 kts 194°
2026-05-06 18:58 48.57540 8.27417 36009 ft 413 kts 194°
2026-05-06 18:58 48.54743 8.26410 36306 ft 413 kts 194°
2026-05-06 18:58 48.51944 8.25421 36606 ft 414 kts 192°
2026-05-06 18:58 48.49122 8.24900 36825 ft 416 kts 184°
2026-05-06 18:59 48.46231 8.25055 36893 ft 416 kts 175°
2026-05-06 18:59 48.40537 8.26443 36892 ft 414 kts 173°
2026-05-06 19:00 48.34855 8.27833 36894 ft 413 kts 173°
2026-05-06 19:00 48.29178 8.29199 36901 ft 413 kts 173°
2026-05-06 19:01 48.23538 8.30562 36904 ft 413 kts 173°
2026-05-06 19:01 48.17862 8.31925 36915 ft 413 kts 173°
2026-05-06 19:02 48.12180 8.33288 36912 ft 414 kts 173°
2026-05-06 19:02 48.06500 8.34670 36912 ft 414 kts 173°
2026-05-06 19:03 48.00818 8.36055 36920 ft 414 kts 173°
2026-05-06 19:03 47.95176 8.37413 36931 ft 413 kts 173°
2026-05-06 19:04 47.89495 8.38777 36930 ft 414 kts 173°
2026-05-06 19:04 47.83817 8.40138 36936 ft 413 kts 174°
2026-05-06 19:05 47.78135 8.41502 36941 ft 413 kts 174°
2026-05-06 19:05 47.72507 8.42902 36943 ft 415 kts 169°
2026-05-06 19:06 47.67205 8.46388 36944 ft 424 kts 148°
2026-05-06 19:06 47.62745 8.52201 36940 ft 428 kts 141°
2026-05-06 19:07 47.58360 8.58182 36936 ft 428 kts 141°
2026-05-06 19:07 47.53979 8.64125 36938 ft 429 kts 142°
2026-05-06 19:08 47.49597 8.70055 36940 ft 429 kts 142°
2026-05-06 19:08 47.45199 8.76019 36943 ft 429 kts 142°
2026-05-06 19:09 47.40802 8.81977 36941 ft 429 kts 142°
2026-05-06 19:09 47.36402 8.87910 36938 ft 429 kts 142°
2026-05-06 19:10 47.31984 8.93827 36937 ft 429 kts 142°
2026-05-06 19:10 47.27603 8.99697 36946 ft 428 kts 142°
2026-05-06 19:11 47.23195 9.05603 36945 ft 428 kts 142°
2026-05-06 19:11 47.18783 9.11498 36941 ft 428 kts 142°
2026-05-06 19:12 47.14372 9.17377 36941 ft 428 kts 142°
2026-05-06 19:12 47.09988 9.23199 36931 ft 428 kts 142°
2026-05-06 19:13 47.05567 9.29045 36927 ft 428 kts 142°
2026-05-06 19:13 47.01146 9.34888 36920 ft 428 kts 142°
2026-05-06 19:14 46.96722 9.40728 36917 ft 428 kts 142°
2026-05-06 19:14 46.92328 9.46517 36914 ft 428 kts 143°
2026-05-06 19:15 46.87899 9.52335 36916 ft 428 kts 143°
2026-05-06 19:15 46.83465 9.58135 36913 ft 428 kts 143°
2026-05-06 19:16 46.79029 9.63931 36915 ft 428 kts 143°
2026-05-06 19:16 46.74588 9.69722 36924 ft 428 kts 143°
2026-05-06 19:17 46.70171 9.75462 36929 ft 429 kts 143°
2026-05-06 19:17 46.65724 9.81242 36930 ft 429 kts 143°
2026-05-06 19:18 46.61261 9.87022 36942 ft 429 kts 143°
2026-05-06 19:18 46.56794 9.92782 36938 ft 429 kts 144°
2026-05-06 19:19 46.52367 9.98488 36939 ft 429 kts 144°
2026-05-06 19:19 46.47902 10.04235 36946 ft 429 kts 144°
2026-05-06 19:20 46.43366 10.09835 36946 ft 427 kts 146°
2026-05-06 19:20 46.39181 10.14792 36949 ft 427 kts 146°
2026-05-06 19:21 46.34610 10.20195 36948 ft 427 kts 146°
2026-05-06 19:21 46.30016 10.25652 36954 ft 427 kts 146°
2026-05-06 19:22 46.25430 10.31122 36946 ft 428 kts 146°
2026-05-06 19:22 46.23133 10.33859 36696 ft 427 kts 147°
2026-05-06 19:22 46.20846 10.36582 36437 ft 426 kts 147°
2026-05-06 19:22 46.18560 10.39301 36187 ft 425 kts 147°
2026-05-06 19:23 46.16310 10.41976 35939 ft 424 kts 148°
2026-05-06 19:23 46.14034 10.44676 35687 ft 423 kts 148°
2026-05-06 19:23 46.11761 10.47366 35439 ft 422 kts 148°
2026-05-06 19:23 46.09490 10.50042 35196 ft 421 kts 149°
2026-05-06 19:24 46.07232 10.52702 34952 ft 418 kts 149°
2026-05-06 19:24 46.04987 10.55347 34704 ft 416 kts 149°
2026-05-06 19:24 46.02755 10.57973 34462 ft 412 kts 150°
2026-05-06 19:24 46.00545 10.60573 34064 ft 410 kts 150°
2026-05-06 19:25 45.98336 10.63128 32894 ft 416 kts 154°
2026-05-06 19:25 45.95822 10.65059 32023 ft 400 kts 169°
2026-05-06 19:25 45.93197 10.66049 31611 ft 386 kts 174°
2026-05-06 19:25 45.90648 10.67316 31106 ft 388 kts 168°
2026-05-06 19:26 45.88143 10.68707 30581 ft 384 kts 168°
2026-05-06 19:26 45.85657 10.70073 30005 ft 380 kts 168°
2026-05-06 19:26 45.83194 10.71410 29328 ft 377 kts 168°
2026-05-06 19:26 45.80750 10.72723 28701 ft 373 kts 168°
2026-05-06 19:27 45.78327 10.74023 28036 ft 370 kts 168°
2026-05-06 19:27 45.75957 10.75298 27453 ft 368 kts 168°
2026-05-06 19:27 45.73569 10.76585 26873 ft 366 kts 168°
2026-05-06 19:27 45.71198 10.77866 26317 ft 364 kts 168°
2026-05-06 19:28 45.68838 10.79142 25804 ft 362 kts 168°
2026-05-06 19:28 45.66489 10.80413 25325 ft 360 kts 167°
2026-05-06 19:28 45.64156 10.81670 24860 ft 358 kts 167°
2026-05-06 19:28 45.61829 10.82918 24393 ft 356 kts 167°
2026-05-06 19:29 45.59516 10.84155 23924 ft 354 kts 167°
2026-05-06 19:29 45.57249 10.85366 23453 ft 352 kts 167°
2026-05-06 19:29 45.54958 10.86594 22932 ft 350 kts 167°
2026-05-06 19:29 45.52681 10.87818 22399 ft 348 kts 166°
2026-05-06 19:30 45.50421 10.89035 21865 ft 347 kts 166°
2026-05-06 19:30 45.48168 10.90242 21350 ft 345 kts 166°
2026-05-06 19:30 45.45923 10.91441 20831 ft 344 kts 166°
2026-05-06 19:30 45.43690 10.92632 20320 ft 342 kts 166°
2026-05-06 19:31 45.41463 10.93820 19823 ft 341 kts 165°
2026-05-06 19:31 45.39246 10.95000 19335 ft 340 kts 165°
2026-05-06 19:31 45.34817 10.96908 18399 ft 328 kts 181°
2026-05-06 19:32 45.32556 10.96915 17899 ft 325 kts 185°
2026-05-06 19:32 45.30302 10.96876 17399 ft 323 kts 185°
2026-05-06 19:32 45.28063 10.96834 16957 ft 321 kts 185°
2026-05-06 19:32 45.25842 10.96790 16512 ft 318 kts 185°
2026-05-06 19:33 45.23637 10.96744 16077 ft 316 kts 184°
2026-05-06 19:33 45.21447 10.96701 15648 ft 314 kts 184°
2026-05-06 19:33 45.19302 10.96656 15238 ft 311 kts 184°
2026-05-06 19:33 45.17143 10.96609 14829 ft 309 kts 184°
2026-05-06 19:34 45.14997 10.96564 14422 ft 307 kts 183°
2026-05-06 19:34 45.12867 10.96521 14023 ft 305 kts 183°
2026-05-06 19:34 45.10749 10.96480 13605 ft 303 kts 182°
2026-05-06 19:34 45.08641 10.96440 13147 ft 302 kts 183°
2026-05-06 19:35 45.06542 10.96400 12665 ft 301 kts 183°
2026-05-06 19:35 45.04446 10.96361 12186 ft 301 kts 183°
2026-05-06 19:35 45.02384 10.96319 11677 ft 302 kts 183°
2026-05-06 19:35 45.00293 10.96277 11265 ft 299 kts 183°
2026-05-06 19:36 44.98218 10.96235 10870 ft 296 kts 184°
2026-05-06 19:36 44.96168 10.96194 10484 ft 294 kts 184°
2026-05-06 19:36 44.94132 10.96152 10102 ft 291 kts 184°
2026-05-06 19:36 44.92121 10.96112 9859 ft 284 kts 184°
2026-05-06 19:37 44.90167 10.96073 9530 ft 280 kts 184°
2026-05-06 19:37 44.88223 10.96033 9103 ft 279 kts 184°
2026-05-06 19:37 44.86289 10.95994 8649 ft 278 kts 184°
2026-05-06 19:37 44.85008 10.95968 8406 ft 276 kts 184°
2026-05-06 19:38 44.82472 10.95918 7861 ft 274 kts 184°
2026-05-06 19:38 44.80622 10.95882 7435 ft 273 kts 184°
2026-05-06 19:38 44.78751 10.95844 7017 ft 272 kts 184°
2026-05-06 19:38 44.76884 10.95798 6699 ft 266 kts 185°
2026-05-06 19:39 44.74994 10.95747 5984 ft 275 kts 184°
2026-05-06 19:39 44.73112 10.95692 5714 ft 267 kts 184°
2026-05-06 19:39 44.71287 10.95659 5483 ft 257 kts 184°
2026-05-06 19:39 44.69563 10.95639 5324 ft 245 kts 184°
2026-05-06 19:40 44.67905 10.95623 5173 ft 231 kts 184°
2026-05-06 19:40 44.66350 10.95877 5049 ft 224 kts 163°
2026-05-06 19:40 44.65068 10.97057 4864 ft 223 kts 137°
2026-05-06 19:40 44.64230 10.98880 4608 ft 223 kts 118°
2026-05-06 19:41 44.63558 11.00846 4270 ft 224 kts 118°
2026-05-06 19:41 44.62864 11.02792 3973 ft 222 kts 120°
2026-05-06 19:41 44.62164 11.04730 3654 ft 223 kts 118°
2026-05-06 19:41 44.61493 11.06655 3380 ft 222 kts 118°
2026-05-06 19:42 44.60806 11.08594 3082 ft 222 kts 119°
2026-05-06 19:42 44.60114 11.10525 2790 ft 221 kts 119°
2026-05-06 19:42 44.59427 11.12455 2496 ft 221 kts 119°
2026-05-06 19:42 44.58738 11.14371 2228 ft 219 kts 119°
2026-05-06 19:43 44.58058 11.16270 1903 ft 217 kts 119°
2026-05-06 19:43 44.57397 11.18126 1661 ft 205 kts 119°
2026-05-06 19:43 44.56782 11.19851 1382 ft 192 kts 119°
2026-05-06 19:43 44.56208 11.21448 1155 ft 172 kts 120°
2026-05-06 19:44 44.55722 11.22819 949 ft 149 kts 119°
2026-05-06 19:44 44.55275 11.24053 751 ft 135 kts 119°
2026-05-06 19:44 44.54868 11.25182 558 ft 127 kts 118°
2026-05-06 19:44 44.54481 11.26271 374 ft 124 kts 118°
2026-05-06 19:45 44.54097 11.27342 209 ft 122 kts 118°
2026-05-06 19:45 44.53715 11.28375 128 ft 112 kts 116°
2026-05-06 19:45 44.53444 11.29147 126 ft 63 kts 117°
2026-05-06 19:45 44.53316 11.29489 127 ft 29 kts 128°
2026-05-06 19:46 44.53208 11.29641 128 ft 16 kts 145°
2026-05-06 19:46 44.53131 11.29706 126 ft 13 kts 150°
2026-05-06 19:46 44.53079 11.29756 124 ft 5 kts 143°
2026-05-06 19:46 44.53043 11.29786 127 ft 6 kts 162°
2026-05-06 19:47 44.53035 11.29749 125 ft 6 kts 264°
2026-05-06 19:47 44.53047 11.29696 125 ft 6 kts 301°
2026-05-06 19:47 44.53070 11.29639 126 ft 7 kts 297°
2026-05-06 19:47 44.53102 11.29548 126 ft 13 kts 295°
2026-05-06 19:48 44.53142 11.29434 124 ft 12 kts 297°
2026-05-06 19:48 44.53129 11.29352 125 ft 7 kts 204°
2026-05-06 19:48 44.53086 11.29330 123 ft 3 kts 201°
2026-05-06 19:48 44.53068 11.29318 124 ft 1 kts 205°
2026-05-06 19:49 44.53067 11.29317 124 ft 0 kts 205°